[Date Prev][Date Next][Thread Prev][Thread Next] - [Date Index][Thread Index][Author Index]
2 Line ISS Keps 5-26
- Subject: [sarex] 2 Line ISS Keps 5-26
- From: "Dave Larsen PhD" <doc@xxxxxxxxxxx>
- Date: Mon, 26 May 2003 05:17:42 -0700
ISS
1 25544U 98067A 03146.45551258 .00011821 00000-0 15212-3 0 481
2 25544 51.6298 129.4376 0006107 155.1870 349.1091 15.59518899257614
----
Via the sarex mailing list at AMSAT.ORG courtesy of AMSAT-NA.
To unsubscribe, send "unsubscribe sarex" to Majordomo@amsat.org
AMSAT Home